Showing default

HG-02, 60327

Orbit data source: Space-Track

HG-02, 60327 is a payload satellite owned by CNSA (CN) in GEO that was launched on Thu, 01 Aug 2024 UTC via a CHANG ZHENG 3B launch vehicle from the Xichang Space Center, China (XSC). Payload-class satellites include a variety of spacecraft equipped with specific instruments for various scientific and technological missions. These include communications satellites like Starlink; space stations such as the ISS; scientific satellites like the Hubble; Earth observation satellites from companies like Planet Labs, Umbra, and HawkEye 360; GPS; miniature CubeSats for education and research; and military/defense satellites.

Not visible in the next 10 days
Identifier
60327, 2024-135A
Orbit
GEO
Country
Flag of CNCN / PRC
Related business
Manufacturer
CAST
Mission
Operational Civil Communications
Bus & Motor
DFH-4?, FY-25?
Mass
~4,000 kg wet, ~2,000 kg dry
Launch date (UTC)
2024-08-01 (2 years ago)
Launch vehicle
CHANG ZHENG 3B
Launch site
Xichang Space Center, China (XSC)
Object type
Payload
Rocket body
Debris
Shape & HBR
Box + 2 Pan, 10.0 m
Radar Cross Section
17.671 m², Large (>1 m²)

Expand to show TLE details & history
Last TLE update: 7 hours ago

TLE from 7 hours ago
0 HG-02
1 60327U 24135A   26171.55639622 -.00000178  00000-0  00000+0 0  9994
2 60327   0.0432 354.2481 0007383  13.9786 253.9739  1.00269765  7530
Epoch: 2026-06-20T13:21Z
TLE epoch observation values (Epoch: 2026-06-20T13:21:12.633Z)
Latitude
-0.0625°
Longitude
153.05967°
Altitude
35,795.266 km
Speed
3.074 km/s
True Right ascension
17h 28m 31s
True Declination
0° 03' 45"
Sunlit
Object was in daylight at epoch
Visualization orbit readout
Latitude
Unknown
Longitude
Unknown
Altitude
Unknown
Speed
Unknown
Apparent Right ascension
Unknown
Apparent Declination
Unknown
Sunlit
N/A
Visualization observer readout
Local Sidereal Time
07:22:33
Azimuth
Unknown
Elevation
Unknown
Doppler factor
Unknown
Orbital elements
Apogee altitude
35,819.363 km
Perigee altitude
35,757.1 km
Semi-major axis
42,166.369 km
Eccentricity
0.00074
Inclination
0.0432°
RAAN
354.2481°
Arg. of periapsis
13.9786°
True anomaly
253.89261°
Mean anomaly
253.9739°
Eccentric anomaly
253.93325°
Mean motion
0.25067 °/min
Orbital period
1,436.18 mins
BSTAR
0
Loading maneuver chart data...
Computing Atmospheric mass density...
Loading historical data...
Loading historical data...
Loading historical data...
Loading historical data...
Loading historical data...
Loading historical data...
Loading historical data...
Other satellites on launch #135 in the year 2024 (2024-08-01 UTC)

Documentation

Showing up to 5 results
|